[[{"header":{"parameterUnit":"m.s-1","parameterCategory":2,"la1":30.2991,"la2":30.254,"lo1":-89.0895,"lo2":-89.0444,"dy":0.0017,"dx":0.0017,"nx":28,"ny":28,"refTime":"2024-07-20T21:00:00:Z","depth":"0","parameterNumber":2,"parameterNumberName":"U-component_of_CURRENTS"},"data":[0,0,0,0,0,0,0,0,0,0,0,0,0,0,0,0,0,0,0,0,0,0,0,0,0,0,0,0,0,0,0,0,0,0,0,0,0,0,0,0,0,0,0,0,0,0,0,0,0,0,0,0,0,0,0,0,0,0,-0.2571,-0.2571,0,-0.2586,-0.2586,-0.2586,-0.2549,-0.2548,-0.2548,-0.2547,-0.2534,-0.2534,-0.2535,0,0,0,0,0,0,0,0,0,0,0,0,0,-0.2504,-0.2506,-0.2571,-0.2571,-0.2572,-0.2586,-0.2586,-0.2586,-0.255,-0.2548,-0.2547,-0.2546,-0.2534,-0.2534,-0.2535,0,0,0,0,0,0,0,0,0,0,0,0,0,-0.2526,-0.2506,-0.2571,-0.2557,-0.2556,-0.2586,-0.2586,-0.2586,-0.255,-0.2548,-0.2547,-0.2546,-0.2533,-0.2534,-0.2535,-0.2568,0,0,-0.2537,-0.2538,0,0,0,0,0,0,0,0,-0.2524,-0.2528,-0.2559,-0.2558,-0.2557,-0.2567,-0.2558,-0.2579,-0.255,-0.255,-0.2547,-0.2545,-0.2545,-0.2545,-0.2547,-0.2567,-0.2567,-0.2537,-0.2538,-0.2538,-0.2538,0,0,0,0,0,0,0,-0.2523,-0.2527,-0.2574,-0.2559,-0.2558,-0.2548,-0.255,-0.2562,-0.2553,-0.255,-0.2548,-0.2554,-0.2544,-0.2547,-0.2547,-0.2567,-0.2537,-0.2538,-0.2539,-0.2539,-0.2572,-0.2572,0,0,0,0,0,0,-0.2528,-0.2526,-0.2574,-0.2575,-0.254,-0.2551,-0.2552,-0.2563,-0.2553,-0.2551,-0.2555,-0.2552,-0.2546,-0.2546,-0.2546,-0.2562,-0.2538,-0.2539,-0.2539,-0.2572,-0.2572,-0.2573,0,0,0,0,0,0,-0.2527,-0.2533,-0.2573,-0.2552,-0.2557,-0.2554,-0.2566,-0.2564,-0.2562,-0.2558,-0.2554,-0.2554,-0.2545,-0.2545,-0.2549,-0.2562,-0.2539,-0.254,-0.2571,-0.2572,-0.2572,-0.2608,0,0,0,0,0,0,-0.2525,-0.2532,-0.2537,-0.2553,-0.2558,-0.2595,-0.2568,-0.2566,-0.2569,-0.2565,-0.2556,-0.2554,-0.2544,-0.2548,-0.2549,-0.2563,-0.2541,-0.2571,-0.2572,-0.2572,-0.2607,-0.261,-0.2613,0,0,0,0,0,-0.2523,-0.2538,-0.2538,-0.2543,-0.2567,-0.2596,-0.2598,-0.2589,-0.2571,-0.2579,-0.2563,-0.2554,-0.2553,-0.2549,-0.2551,-0.2565,-0.257,-0.2571,-0.2572,-0.2605,-0.261,-0.2613,0,0,0,0,0,0,-0.2505,-0.2537,-0.2536,-0.2558,-0.2578,-0.2591,-0.2596,-0.2593,-0.2589,-0.2578,-0.2564,-0.2562,-0.2567,-0.2563,-0.2558,-0.2575,-0.2559,-0.2561,-0.2584,-0.2588,-0.2591,-0.26,-0.2541,0,0,0,0,0,-0.2508,-0.2527,-0.2556,-0.257,-0.2582,-0.259,-0.2597,-0.2597,-0.2599,-0.2594,-0.2588,-0.2578,-0.2577,-0.2578,-0.2576,-0.2594,-0.2579,-0.2602,-0.2605,-0.2608,-0.2616,-0.2598,-0.26,-0.2576,-0.2576,-0.2576,0,0,-0.2503,-0.2523,-0.2531,-0.2567,-0.2577,-0.2608,-0.259,-0.2608,-0.2626,-0.2596,-0.2607,-0.2591,-0.2582,-0.2593,-0.2596,-0.259,-0.2607,-0.2609,-0.2612,-0.2618,-0.2599,-0.2602,-0.2604,-0.2576,-0.2576,-0.2576,0,0,-0.251,-0.2524,-0.2547,-0.2572,-0.26,-0.2614,-0.2622,-0.2641,-0.264,-0.2656,-0.2632,-0.2622,-0.2629,-0.2621,-0.2619,-0.2643,-0.2621,-0.2641,-0.2671,-0.2653,-0.2655,-0.2657,-0.2638,-0.2638,-0.2646,-0.2646,-0.2646,0,-0.2501,-0.2537,-0.2556,-0.259,-0.2615,-0.262,-0.2656,-0.2666,-0.2679,-0.2677,-0.2662,-0.2649,-0.2643,-0.2649,-0.2656,-0.2651,-0.2635,-0.2657,-0.2658,-0.2659,-0.266,-0.264,-0.2639,-0.2648,-0.2648,-0.2648,-0.2648,0,-0.2531,-0.2562,-0.2579,-0.2627,-0.2659,-0.2686,-0.2718,-0.2731,-0.2726,-0.2724,-0.272,-0.2704,-0.2695,-0.2691,-0.2685,-0.2691,-0.2675,-0.266,-0.2648,-0.2664,-0.2643,-0.2641,-0.2651,-0.265,-0.265,-0.2649,0,0,-0.249,-0.2584,-0.2584,-0.2619,-0.2681,-0.2707,-0.2749,-0.2779,-0.2781,-0.2781,-0.2784,-0.2776,-0.2751,-0.2747,-0.2731,-0.272,-0.2714,-0.2701,-0.2699,-0.2684,-0.2674,-0.2494,-0.2475,-0.2697,-0.2697,-0.2697,-0.2655,0,-0.2501,-0.257,-0.2622,-0.2684,-0.2721,-0.2763,-0.2793,-0.2817,-0.2824,-0.2825,-0.2804,-0.2798,-0.2778,-0.2771,-0.2759,-0.2726,-0.2712,-0.2727,-0.2659,-0.2658,-0.2497,-0.2467,-0.2364,-0.2302,-0.2653,-0.2653,-0.2653,0,-0.25,-0.255,-0.2616,-0.2707,-0.2726,-0.2764,-0.281,-0.2845,-0.2855,-0.286,-0.2855,-0.2833,-0.2829,-0.2804,-0.2759,-0.2768,-0.2731,-0.2698,-0.2696,-0.2515,-0.2474,-0.2343,-0.2285,-0.2284,-0.265,-0.265,-0.265,0,-0.2434,-0.2543,-0.2593,-0.2624,-0.2722,-0.2754,-0.2802,-0.2833,-0.2866,-0.2884,-0.2896,-0.287,-0.286,-0.2819,-0.2736,-0.2762,-0.2658,-0.2686,-0.2489,-0.2477,-0.2367,-0.2342,-0.2297,-0.265,-0.265,-0.265,-0.265,0,-0.241,-0.2442,-0.2564,-0.2581,-0.2635,-0.272,-0.2767,-0.2804,-0.2863,-0.2858,-0.2905,-0.2871,-0.2862,-0.2791,-0.2737,-0.2572,-0.2654,-0.248,-0.2443,-0.2373,-0.2351,-0.2325,-0.2368,-0.2648,-0.2649,-0.2649,-0.2649,0,-0.2303,-0.239,-0.2442,-0.2554,-0.2601,-0.2625,-0.2771,-0.2806,-0.2866,-0.287,-0.2882,-0.2886,-0.2765,-0.2713,-0.2615,-0.2544,-0.2372,-0.2348,-0.2254,-0.2203,-0.2014,-0.2062,-0.1978,-0.1921,-0.2155,-0.215,-0.2146,0,-0.2252,-0.2266,-0.239,-0.2443,-0.2497,-0.2585,-0.2654,-0.2777,-0.2821,-0.2821,-0.2809,-0.2726,-0.2553,-0.2365,-0.2254,-0.2109,-0.2157,-0.1952,-0.1973,-0.1961,-0.1993,-0.2055,-0.2021,-0.1866,-0.1859,-0.1855,-0.185,0,-0.213,-0.2165,-0.2211,-0.2315,-0.2408,-0.2493,-0.2596,-0.2601,-0.2682,-0.2634,-0.2462,-0.231,-0.2191,-0.1957,-0.1833,-0.175,-0.1906,-0.184,-0.187,-0.1775,-0.1804,-0.1743,-0.1953,-0.1806,-0.1811,-0.1814,-0.1816,-0.1818,-0.2016,-0.201,-0.2077,-0.2159,-0.2271,-0.228,-0.2225,-0.228,-0.218,-0.1966,-0.2007,-0.1675,-0.1748,-0.1525,-0.146,-0.1414,-0.1526,-0.1408,-0.1477,-0.1549,-0.1454,-0.1532,-0.1303,-0.1305,-0.1306,-0.1307,-0.1308,0,-0.1855,-0.1868,-0.1937,-0.1991,-0.2021,-0.2125,-0.2106,-0.1966,-0.1676,-0.1513,-0.1258,-0.1054,-0.0994,-0.1103,-0.1181,-0.1118,-0.1152,-0.1112,-0.1244,-0.1231,-0.1329,-0.1272,-0.0971,-0.0971,-0.0971,-0.0971,-0.0971,-0.0971,-0.177,-0.1738,-0.1762,-0.1707,-0.1746,-0.1604,-0.1489,-0.1265,-0.1082,-0.0618,-0.0378,-0.0285,-0.0603,-0.1018,-0.1106,-0.1051,-0.1091,-0.1019,-0.1078,-0.1226,-0.1263,-0.1298,-0.1254,-0.0954,-0.0955,-0.0943,-0.0943,-0.0943]},{"header":{"parameterUnit":"m.s-1","parameterCategory":2,"la1":30.2991,"la2":30.254,"lo1":-89.0895,"lo2":-89.0444,"dy":0.0017,"dx":0.0017,"nx":28,"ny":28,"refTime":"2024-07-20T21:00:00:Z","depth":"0","parameterNumber":3,"parameterNumberName":"V-component_of_CURRENTS"},"data":[0,0,0,0,0,0,0,0,0,0,0,0,0,0,0,0,0,0,0,0,0,0,0,0,0,0,0,0,0,0,0,0,0,0,0,0,0,0,0,0,0,0,0,0,0,0,0,0,0,0,0,0,0,0,0,0,0,0,-0.0314,-0.0314,0,-0.0242,-0.0241,-0.024,-0.0188,-0.0188,-0.0188,-0.0187,-0.0059,-0.0056,-0.0053,0,0,0,0,0,0,0,0,0,0,0,0,0,-0.0361,-0.0361,-0.0314,-0.0314,-0.0313,-0.0242,-0.0241,-0.024,-0.0189,-0.0188,-0.0188,-0.0187,-0.006,-0.0057,-0.0053,0,0,0,0,0,0,0,0,0,0,0,0,0,-0.032,-0.0361,-0.0315,-0.0279,-0.0275,-0.0243,-0.0241,-0.024,-0.0189,-0.0188,-0.0187,-0.0187,-0.0061,-0.0057,-0.0053,-0.0036,0,0,-0.0039,-0.0037,0,0,0,0,0,0,0,0,-0.0323,-0.0318,-0.0285,-0.0281,-0.0277,-0.0224,-0.0211,-0.0169,-0.0189,-0.0221,-0.0187,-0.0187,-0.011,-0.0101,-0.0089,-0.003,-0.0024,-0.0038,-0.0035,-0.0033,-0.0032,0,0,0,0,0,0,0,-0.0326,-0.0321,-0.0285,-0.0284,-0.0279,-0.0251,-0.0244,-0.0203,-0.0168,-0.0218,-0.0214,-0.0207,-0.0107,-0.0094,-0.0086,-0.0022,-0.0038,-0.0034,-0.0031,-0.003,0.0087,0.0088,0,0,0,0,0,0,-0.0338,-0.0324,-0.0288,-0.0283,-0.0299,-0.025,-0.0243,-0.0241,-0.017,-0.0159,-0.0208,-0.0205,-0.0102,-0.0091,-0.0081,-0.0061,-0.0033,-0.0029,-0.0026,0.0087,0.0088,0.0088,0,0,0,0,0,0,-0.034,-0.0336,-0.0291,-0.0302,-0.0294,-0.0251,-0.0248,-0.024,-0.0227,-0.0163,-0.015,-0.0203,-0.0101,-0.0087,-0.005,-0.0056,-0.0027,-0.0023,0.0087,0.0087,0.0088,-0.0019,0,0,0,0,0,0,-0.0342,-0.0337,-0.0343,-0.0303,-0.0294,-0.028,-0.0249,-0.0239,-0.0224,-0.0219,-0.0154,-0.0142,-0.01,-0.0058,-0.0046,-0.0049,-0.0019,0.0086,0.0087,0.0088,-0.0016,-0.0022,-0.0028,0,0,0,0,0,-0.0344,-0.0357,-0.0344,-0.0339,-0.0303,-0.0281,-0.0274,-0.024,-0.0224,-0.0224,-0.0181,-0.0144,-0.0044,-0.0055,-0.0041,-0.0042,0.0086,0.0087,0.0088,-0.0013,-0.0021,-0.0027,0,0,0,0,0,0,-0.0382,-0.0352,-0.0337,-0.034,-0.0316,-0.0272,-0.0271,-0.0246,-0.0213,-0.0209,-0.0147,-0.0132,-0.01,-0.0053,-0.0065,-0.0002,0.0031,0.0034,-0.0051,-0.0057,-0.0063,-0.0084,-0.0016,0,0,0,0,0,-0.0394,-0.0396,-0.0359,-0.0364,-0.0354,-0.0314,-0.0301,-0.0279,-0.0243,-0.0228,-0.0182,-0.0128,-0.0085,-0.0059,-0.0013,0.0016,0.0075,0.003,0.0024,0.0018,0.0013,0.0078,0.0077,0.0091,0.0091,0.0091,0,0,-0.0413,-0.0395,-0.0396,-0.0372,-0.035,-0.0353,-0.0305,-0.0293,-0.0292,-0.0218,-0.0203,-0.0151,-0.0082,-0.0052,-0.0032,-0.0014,0.0052,0.0019,0.0013,0.0011,0.0078,0.0077,0.0076,0.0091,0.0091,0.0091,0,0,-0.0455,-0.0433,-0.0451,-0.0435,-0.0409,-0.0384,-0.0385,-0.0344,-0.0321,-0.0297,-0.0244,-0.02,-0.0132,-0.0089,-0.0057,-0.0063,0.0015,-0.0039,-0.0085,-0.0023,-0.0024,-0.0024,0.007,0.0079,-0.0039,-0.0039,-0.004,0,-0.0479,-0.0498,-0.0453,-0.0466,-0.047,-0.0405,-0.0434,-0.0397,-0.0349,-0.0333,-0.0304,-0.0205,-0.0151,-0.0112,-0.0113,-0.0079,-0.0018,-0.0072,-0.0033,-0.0032,-0.0031,0.0066,0.0077,-0.0044,-0.0044,-0.0043,-0.0043,0,-0.0536,-0.0551,-0.056,-0.056,-0.0555,-0.0565,-0.0518,-0.05,-0.0461,-0.0419,-0.0367,-0.0288,-0.0232,-0.0199,-0.016,-0.0121,-0.0071,-0.0055,-0.0026,-0.0039,0.0065,0.0078,-0.0052,-0.005,-0.0048,-0.0047,0,0,-0.0595,-0.0603,-0.0608,-0.0643,-0.061,-0.0626,-0.0609,-0.0586,-0.0574,-0.0503,-0.0482,-0.04,-0.0345,-0.0304,-0.0237,-0.0174,-0.0105,-0.0117,-0.0111,-0.004,0.0061,0.0169,0.0195,-0.0087,-0.0086,-0.0085,0.0137,0,-0.0659,-0.0726,-0.0701,-0.0774,-0.0811,-0.0756,-0.0749,-0.0712,-0.0646,-0.0599,-0.0497,-0.0441,-0.0386,-0.035,-0.0289,-0.0144,-0.0078,-0.0165,0.008,0.0088,0.017,0.0211,0.0234,0.0438,0.015,0.0152,0.0154,0,-0.0725,-0.0768,-0.0849,-0.0899,-0.0909,-0.0932,-0.0923,-0.0911,-0.0803,-0.0745,-0.0664,-0.0554,-0.0445,-0.0399,-0.0179,-0.0235,-0.0108,0.0008,0.0019,0.0163,0.022,0.0405,0.0474,0.0599,0.0175,0.0174,0.0172,0,-0.0811,-0.0879,-0.0959,-0.0974,-0.0999,-0.1026,-0.1039,-0.096,-0.0925,-0.0831,-0.0741,-0.063,-0.0504,-0.0373,-0.0107,-0.015,0.0166,0.0133,0.0352,0.0363,0.0454,0.047,0.0656,0.0268,0.0268,0.0267,0.0266,0,-0.0891,-0.0959,-0.1014,-0.1058,-0.1166,-0.1138,-0.118,-0.116,-0.1052,-0.0929,-0.0828,-0.0652,-0.0485,-0.0253,-0.0106,0.0206,0.017,0.0365,0.0428,0.0422,0.0433,0.0604,0.0634,0.0275,0.0274,0.0272,0.0271,0,-0.0957,-0.0987,-0.1094,-0.1164,-0.1208,-0.1285,-0.1296,-0.1265,-0.1156,-0.0978,-0.0926,-0.0651,-0.0331,-0.0127,0.0162,0.0275,0.0615,0.0618,0.0624,0.0683,0.0946,0.0968,0.1246,0.1359,0.0856,0.086,0.0864,0,-0.0995,-0.1049,-0.119,-0.1277,-0.132,-0.1411,-0.1423,-0.1357,-0.1233,-0.0897,-0.0752,-0.043,-0.0104,0.0321,0.053,0.0791,0.0861,0.0966,0.0866,0.0993,0.1063,0.1071,0.1144,0.0958,0.0962,0.0965,0.0968,0,-0.1057,-0.1096,-0.1183,-0.1368,-0.1443,-0.1486,-0.1449,-0.1336,-0.1094,-0.0858,-0.0406,-0.0142,0.0276,0.061,0.0887,0.102,0.1059,0.1041,0.1161,0.1161,0.1192,0.132,0.08,0.0996,0.0993,0.0991,0.099,0.0989,-0.1089,-0.1166,-0.128,-0.1448,-0.1524,-0.145,-0.1354,-0.1161,-0.0886,-0.0377,-0.0121,0.0351,0.0672,0.1066,0.1227,0.1424,0.1361,0.1457,0.1481,0.1483,0.1569,0.1136,0.1402,0.1401,0.1401,0.1401,0.14,0,-0.1115,-0.1199,-0.1358,-0.1473,-0.1491,-0.153,-0.1278,-0.1045,-0.0588,-0.0194,0.0265,0.0864,0.1195,0.1409,0.1656,0.1826,0.1828,0.1889,0.1868,0.1927,0.1543,0.1522,0.1838,0.1838,0.1838,0.1838,0.1838,0.1838,-0.1131,-0.1254,-0.1332,-0.1394,-0.1436,-0.1238,-0.1019,-0.0661,-0.0308,0.0335,0.0756,0.1094,0.1406,0.1836,0.2114,0.2147,0.2299,0.2282,0.2394,0.2062,0.2021,0.1982,0.1971,0.2376,0.2377,0.2755,0.2758,0.2761]}],[{"header":{"parameterUnit":"m.s-1","parameterCategory":2,"la1":30.2991,"la2":30.254,"lo1":-89.0895,"lo2":-89.0444,"dy":0.0017,"dx":0.0017,"nx":28,"ny":28,"refTime":"2024-07-20T21:00:00:Z","depth":"2","parameterNumber":2,"parameterNumberName":"U-component_of_CURRENTS"},"data":[0,0,0,0,0,0,0,0,0,0,0,0,0,0,0,0,0,0,0,0,0,0,0,0,0,0,0,0,0,0,0,0,0,0,0,0,0,0,0,0,0,0,0,0,0,0,0,0,0,0,0,0,0,0,0,0,0,0,-0.2463,-0.2463,0,-0.2489,-0.2489,-0.249,-0.2467,-0.2466,-0.2465,-0.2464,-0.246,-0.246,-0.2461,0,0,0,0,0,0,0,0,0,0,0,0,0,-0.2394,-0.2396,-0.2463,-0.2463,-0.2464,-0.2489,-0.2489,-0.249,-0.2467,-0.2466,-0.2465,-0.2464,-0.2459,-0.246,-0.2461,0,0,0,0,0,0,0,0,0,0,0,0,0,-0.2421,-0.2396,-0.2463,-0.2457,-0.2457,-0.2489,-0.2489,-0.249,-0.2467,-0.2466,-0.2465,-0.2464,-0.2459,-0.246,-0.2461,-0.2489,0,0,-0.2464,-0.2464,0,0,0,0,0,0,0,0,-0.2419,-0.2423,-0.2457,-0.2457,-0.2457,-0.2475,-0.2464,-0.2489,-0.2467,-0.2461,-0.2464,-0.2463,-0.2464,-0.2465,-0.247,-0.2489,-0.2489,-0.2464,-0.2464,-0.2465,-0.2465,0,0,0,0,0,0,0,-0.2418,-0.2422,-0.2471,-0.2458,-0.2458,-0.2454,-0.2456,-0.2468,-0.2466,-0.2461,-0.246,-0.2467,-0.2463,-0.2469,-0.2469,-0.2489,-0.2464,-0.2464,-0.2465,-0.2465,-0.2501,-0.2501,0,0,0,0,0,0,-0.242,-0.2421,-0.247,-0.2472,-0.2437,-0.2456,-0.2459,-0.2469,-0.2467,-0.2466,-0.2468,-0.2466,-0.2468,-0.2468,-0.2469,-0.2493,-0.2465,-0.2465,-0.2466,-0.25,-0.2501,-0.2501,0,0,0,0,0,0,-0.2418,-0.2424,-0.2469,-0.2448,-0.2454,-0.2459,-0.2471,-0.247,-0.2473,-0.2473,-0.2471,-0.2471,-0.2467,-0.2468,-0.2479,-0.2492,-0.2466,-0.2467,-0.25,-0.25,-0.2501,-0.2546,0,0,0,0,0,0,-0.2416,-0.2424,-0.243,-0.2449,-0.2455,-0.2494,-0.2472,-0.2472,-0.248,-0.2478,-0.2475,-0.2474,-0.2466,-0.2477,-0.248,-0.2493,-0.2467,-0.2499,-0.25,-0.2501,-0.2544,-0.2548,-0.2552,0,0,0,0,0,-0.2414,-0.2429,-0.243,-0.2436,-0.2465,-0.2495,-0.2498,-0.2496,-0.2482,-0.2492,-0.2484,-0.2474,-0.2483,-0.2479,-0.2481,-0.2495,-0.2499,-0.25,-0.2501,-0.2543,-0.2548,-0.2552,0,0,0,0,0,0,-0.2398,-0.2429,-0.243,-0.2453,-0.2475,-0.2492,-0.25,-0.2501,-0.2504,-0.2497,-0.2487,-0.2486,-0.2498,-0.2492,-0.2487,-0.2506,-0.2487,-0.2488,-0.2518,-0.2522,-0.2526,-0.2526,-0.2468,0,0,0,0,0,-0.2401,-0.2419,-0.2448,-0.2464,-0.2477,-0.2489,-0.25,-0.2503,-0.2511,-0.251,-0.2509,-0.2504,-0.2506,-0.2509,-0.251,-0.253,-0.2509,-0.2536,-0.254,-0.2544,-0.2544,-0.2531,-0.2533,-0.2504,-0.2504,-0.2504,0,0,-0.2398,-0.2417,-0.2426,-0.2462,-0.2475,-0.2505,-0.2492,-0.2514,-0.2532,-0.2511,-0.2528,-0.252,-0.2513,-0.2528,-0.2533,-0.2525,-0.254,-0.2545,-0.2548,-0.2546,-0.2532,-0.2535,-0.2537,-0.2505,-0.2505,-0.2505,0,0,-0.2407,-0.2421,-0.2443,-0.2468,-0.2499,-0.2513,-0.2522,-0.2546,-0.2548,-0.2571,-0.2552,-0.2552,-0.2564,-0.2559,-0.2558,-0.2585,-0.2559,-0.2584,-0.2609,-0.2596,-0.2598,-0.26,-0.2572,-0.2571,-0.2588,-0.2588,-0.2588,0,-0.2401,-0.2433,-0.2453,-0.2486,-0.2505,-0.2519,-0.2549,-0.2565,-0.2586,-0.259,-0.258,-0.2583,-0.2577,-0.2589,-0.2596,-0.2594,-0.2576,-0.2594,-0.2601,-0.2603,-0.2604,-0.2574,-0.2573,-0.2591,-0.259,-0.259,-0.259,0,-0.2429,-0.2459,-0.2475,-0.252,-0.2546,-0.2573,-0.2604,-0.2621,-0.2624,-0.2633,-0.2643,-0.2634,-0.2632,-0.2632,-0.2625,-0.2632,-0.2613,-0.2607,-0.2591,-0.261,-0.2577,-0.2575,-0.2594,-0.2593,-0.2592,-0.2592,0,0,-0.2396,-0.248,-0.2482,-0.2508,-0.2565,-0.2585,-0.2625,-0.2658,-0.2673,-0.2685,-0.2695,-0.2699,-0.2685,-0.2682,-0.2669,-0.2661,-0.2653,-0.2642,-0.264,-0.2616,-0.2613,-0.2517,-0.2504,-0.265,-0.265,-0.265,-0.2585,0,-0.2406,-0.2468,-0.251,-0.256,-0.259,-0.2627,-0.2663,-0.2694,-0.2709,-0.2725,-0.2716,-0.2722,-0.2708,-0.2704,-0.2696,-0.2664,-0.2649,-0.267,-0.2597,-0.2594,-0.2508,-0.2499,-0.2292,-0.221,-0.2583,-0.2582,-0.2582,0,-0.2409,-0.2451,-0.2505,-0.2578,-0.2594,-0.2626,-0.267,-0.2706,-0.2741,-0.2753,-0.2759,-0.2754,-0.2748,-0.273,-0.2686,-0.2701,-0.2661,-0.2632,-0.2629,-0.252,-0.2492,-0.2253,-0.2191,-0.2577,-0.2577,-0.2578,-0.2578,0,-0.2352,-0.244,-0.2478,-0.2504,-0.2592,-0.2614,-0.2653,-0.2702,-0.2729,-0.2762,-0.2773,-0.2774,-0.2757,-0.2727,-0.267,-0.2681,-0.2607,-0.2613,-0.2486,-0.2479,-0.2277,-0.2251,-0.2575,-0.2575,-0.2575,-0.2575,-0.2576,0,-0.2334,-0.2358,-0.2454,-0.2471,-0.2508,-0.2581,-0.2616,-0.2658,-0.2715,-0.2734,-0.2773,-0.2768,-0.2756,-0.2716,-0.2672,-0.2557,-0.2605,-0.2479,-0.2453,-0.2285,-0.2263,-0.2564,-0.2564,-0.2573,-0.2574,-0.2574,-0.2574,0,-0.225,-0.2324,-0.2361,-0.2453,-0.248,-0.2495,-0.2587,-0.2612,-0.2682,-0.2704,-0.2716,-0.2751,-0.2692,-0.266,-0.2593,-0.2535,-0.2456,-0.2403,-0.22,-0.2151,-0.2337,-0.234,-0.2258,-0.2254,-0.2251,-0.2248,-0.2246,0,-0.2211,-0.2225,-0.2313,-0.2334,-0.2371,-0.2421,-0.2458,-0.2564,-0.259,-0.2675,-0.2665,-0.2653,-0.259,-0.2464,-0.2346,-0.2229,-0.2341,-0.2003,-0.1987,-0.232,-0.2304,-0.2312,-0.2319,-0.1736,-0.1729,-0.1724,-0.172,0,-0.2114,-0.2145,-0.2179,-0.2215,-0.2255,-0.2294,-0.2352,-0.2374,-0.2487,-0.2523,-0.2534,-0.2502,-0.2381,-0.215,-0.2007,-0.1924,-0.201,-0.1894,-0.2275,-0.1857,-0.1824,-0.181,-0.1835,-0.1674,-0.1678,-0.1682,-0.1684,-0.1686,-0.2021,-0.2014,-0.2052,-0.2069,-0.2112,-0.2108,-0.2078,-0.2161,-0.2178,-0.2165,-0.2287,-0.2158,-0.2109,-0.1748,-0.1639,-0.1538,-0.1683,-0.1612,-0.1629,-0.1651,-0.1611,-0.1575,-0.1369,-0.1372,-0.1374,-0.1376,-0.1378,0,-0.1884,-0.1886,-0.1901,-0.1893,-0.1844,-0.193,-0.1954,-0.1891,-0.1845,-0.188,-0.1863,-0.1631,-0.1445,-0.14,-0.1155,-0.1118,-0.1121,-0.1087,-0.1092,-0.1136,-0.1176,-0.1114,-0.0739,-0.0738,-0.0736,-0.0735,0,0,-0.1812,-0.1762,-0.1763,-0.1611,-0.1598,-0.1461,-0.1433,-0.141,-0.139,-0.131,-0.1247,-0.1323,-0.133,-0.1038,-0.0967,-0.081,-0.0969,-0.076,-0.1263,-0.131,-0.1348,-0.1455,-0.1406,0,0,0,0,0]},{"header":{"parameterUnit":"m.s-1","parameterCategory":2,"la1":30.2991,"la2":30.254,"lo1":-89.0895,"lo2":-89.0444,"dy":0.0017,"dx":0.0017,"nx":28,"ny":28,"refTime":"2024-07-20T21:00:00:Z","depth":"2","parameterNumber":3,"parameterNumberName":"V-component_of_CURRENTS"},"data":[0,0,0,0,0,0,0,0,0,0,0,0,0,0,0,0,0,0,0,0,0,0,0,0,0,0,0,0,0,0,0,0,0,0,0,0,0,0,0,0,0,0,0,0,0,0,0,0,0,0,0,0,0,0,0,0,0,0,-0.0292,-0.0291,0,-0.0226,-0.0225,-0.0224,-0.0177,-0.0176,-0.0176,-0.0176,-0.0064,-0.0062,-0.0059,0,0,0,0,0,0,0,0,0,0,0,0,0,-0.0337,-0.0336,-0.0292,-0.0291,-0.029,-0.0226,-0.0225,-0.0224,-0.0177,-0.0176,-0.0176,-0.0176,-0.0065,-0.0062,-0.0059,0,0,0,0,0,0,0,0,0,0,0,0,0,-0.0298,-0.0336,-0.0292,-0.0259,-0.0256,-0.0226,-0.0225,-0.0224,-0.0177,-0.0176,-0.0176,-0.0175,-0.0066,-0.0062,-0.0058,-0.0044,0,0,-0.0046,-0.0044,0,0,0,0,0,0,0,0,-0.03,-0.0297,-0.0265,-0.0262,-0.0258,-0.0209,-0.02,-0.0161,-0.0177,-0.0206,-0.0176,-0.0175,-0.0109,-0.0102,-0.009,-0.0039,-0.0034,-0.0046,-0.0043,-0.0042,-0.0041,0,0,0,0,0,0,0,-0.0303,-0.0299,-0.0265,-0.0264,-0.026,-0.0234,-0.0228,-0.0192,-0.016,-0.0204,-0.02,-0.0194,-0.0107,-0.0094,-0.0087,-0.0033,-0.0046,-0.0042,-0.004,-0.0038,0.0057,0.0057,0,0,0,0,0,0,-0.0315,-0.0302,-0.0267,-0.0263,-0.0279,-0.0234,-0.0227,-0.0225,-0.0162,-0.0152,-0.0194,-0.0192,-0.0101,-0.0092,-0.0083,-0.0058,-0.0042,-0.0038,-0.0036,0.0057,0.0057,0.0057,0,0,0,0,0,0,-0.0316,-0.0313,-0.027,-0.0281,-0.0274,-0.0234,-0.0231,-0.0224,-0.0212,-0.0155,-0.0144,-0.019,-0.0101,-0.0089,-0.0056,-0.0053,-0.0036,-0.0033,0.0057,0.0057,0.0057,-0.001,0,0,0,0,0,0,-0.0318,-0.0314,-0.0319,-0.0282,-0.0274,-0.0259,-0.0232,-0.0223,-0.0209,-0.0205,-0.0148,-0.0137,-0.0099,-0.0062,-0.0052,-0.0047,-0.003,0.0056,0.0057,0.0057,-0.0008,-0.0012,-0.0015,0,0,0,0,0,-0.032,-0.0331,-0.032,-0.0315,-0.0281,-0.026,-0.0254,-0.0223,-0.0209,-0.0209,-0.017,-0.0139,-0.0052,-0.0059,-0.0047,-0.0041,0.0056,0.0057,0.0057,-0.0006,-0.0011,-0.0015,0,0,0,0,0,0,-0.0354,-0.0326,-0.0313,-0.0315,-0.0292,-0.0252,-0.025,-0.0229,-0.0199,-0.0195,-0.0141,-0.0127,-0.0097,-0.006,-0.0069,-0.0012,0.0009,0.0012,-0.0043,-0.0047,-0.0051,-0.0061,-0.0026,0,0,0,0,0,-0.0365,-0.0366,-0.0332,-0.0335,-0.0326,-0.029,-0.0278,-0.0258,-0.0226,-0.0212,-0.0171,-0.0125,-0.0086,-0.0061,-0.0024,0.0005,0.005,0.0019,0.0015,0.0012,0.0012,0.0073,0.0075,0.0058,0.0058,0.0058,0,0,-0.0381,-0.0364,-0.0366,-0.0343,-0.0323,-0.032,-0.0282,-0.0271,-0.0262,-0.0204,-0.0182,-0.0141,-0.0083,-0.0052,-0.0034,-0.002,0.004,0.0012,0.0009,0.0011,0.0074,0.0075,0.0077,0.0058,0.0058,0.0058,0,0,-0.0414,-0.0398,-0.041,-0.0395,-0.0371,-0.0347,-0.0347,-0.0309,-0.0286,-0.0262,-0.0216,-0.0174,-0.0119,-0.0072,-0.0042,-0.0042,0.0013,-0.003,-0.0052,0.0007,0.0009,0.0011,0.0067,0.0075,-0.0027,-0.0027,-0.0027,0,-0.0436,-0.0444,-0.0411,-0.0417,-0.041,-0.0364,-0.0374,-0.0345,-0.03,-0.0275,-0.0265,-0.0171,-0.0126,-0.0072,-0.0074,-0.0051,-0.0011,-0.0043,0.0001,0.0004,0.0007,0.0065,0.0075,-0.003,-0.003,-0.0029,-0.0029,0,-0.0477,-0.0482,-0.0488,-0.0481,-0.0468,-0.047,-0.0426,-0.0403,-0.0371,-0.0333,-0.0278,-0.0216,-0.0156,-0.0135,-0.0106,-0.0057,-0.0035,-0.0018,0.0008,0.0005,0.0066,0.0077,-0.0034,-0.0033,-0.0032,-0.0032,0,0,-0.053,-0.052,-0.0524,-0.0526,-0.0502,-0.0494,-0.0474,-0.0435,-0.0411,-0.0361,-0.0324,-0.0254,-0.0212,-0.0175,-0.0124,-0.0073,-0.0019,-0.0043,-0.0039,0.0005,0.011,0.013,0.0145,0.0002,0.0004,0.0005,0.0143,0,-0.0574,-0.0606,-0.0581,-0.0601,-0.0612,-0.0558,-0.054,-0.0495,-0.0445,-0.0397,-0.0315,-0.0269,-0.0228,-0.0202,-0.0144,-0.0051,0.0007,-0.0058,0.0114,0.012,0.0131,0.0157,0.0123,0.0243,0.0154,0.0156,0.0157,0,-0.0626,-0.0638,-0.0675,-0.0652,-0.0649,-0.0649,-0.0602,-0.0578,-0.0492,-0.045,-0.0382,-0.0319,-0.0232,-0.0206,-0.0041,-0.0087,0.0004,0.0076,0.0084,0.0134,0.016,0.0234,0.0267,0.0176,0.0175,0.0173,0.0172,0,-0.0689,-0.0696,-0.0728,-0.0727,-0.0701,-0.0692,-0.0669,-0.0599,-0.0569,-0.0487,-0.0456,-0.0342,-0.0281,-0.0161,-0.0011,-0.0025,0.017,0.0175,0.0284,0.0287,0.0309,0.0311,0.0293,0.0293,0.0292,0.0292,0.0291,0,-0.0748,-0.0767,-0.0761,-0.078,-0.0799,-0.0752,-0.0746,-0.0699,-0.063,-0.0597,-0.0493,-0.0436,-0.0268,-0.0136,-0.0011,0.0176,0.0179,0.0291,0.0328,0.0285,0.0283,0.0263,0.0258,0.0297,0.0296,0.0295,0.0294,0,-0.0815,-0.0813,-0.0846,-0.0836,-0.0836,-0.0852,-0.0816,-0.0801,-0.0723,-0.0678,-0.0656,-0.0494,-0.0314,-0.0136,0.008,0.0183,0.035,0.0415,0.0352,0.0378,0.0427,0.0417,0.0551,0.0553,0.0555,0.0556,0.0557,0,-0.0851,-0.088,-0.0908,-0.0937,-0.0938,-0.0947,-0.095,-0.0873,-0.085,-0.0709,-0.069,-0.0502,-0.0367,-0.0036,0.0188,0.0427,0.0421,0.052,0.0488,0.0433,0.0456,0.0443,0.0431,0.0496,0.0497,0.0497,0.0497,0,-0.0917,-0.0931,-0.0964,-0.1032,-0.1056,-0.1068,-0.1057,-0.105,-0.0946,-0.0886,-0.0748,-0.0624,-0.0279,-0.0007,0.0301,0.0424,0.0474,0.0537,0.0521,0.0424,0.039,0.0409,0.0397,0.0502,0.0501,0.0501,0.0501,0.05,-0.0962,-0.1013,-0.1064,-0.1122,-0.115,-0.1169,-0.1173,-0.1134,-0.109,-0.0949,-0.084,-0.0607,-0.0316,0.0138,0.036,0.0575,0.0559,0.0592,0.0588,0.0584,0.0541,0.051,0.0637,0.0637,0.0638,0.0638,0.0638,0,-0.1013,-0.1072,-0.1144,-0.1202,-0.1231,-0.1228,-0.1224,-0.1188,-0.1134,-0.0961,-0.0826,-0.0517,-0.0211,0.0124,0.0476,0.0651,0.0627,0.0668,0.0604,0.0598,0.0593,0.0548,0.0649,0.065,0.065,0.0651,0,0,-0.1044,-0.1131,-0.1175,-0.125,-0.128,-0.1292,-0.1286,-0.122,-0.1087,-0.0902,-0.0706,-0.0531,-0.0143,0.0094,0.0323,0.0522,0.051,0.0526,0.0493,0.0385,0.0378,0.0521,0.0442,0,0,0,0,0]}],[{"header":{"parameterUnit":"m.s-1","parameterCategory":2,"la1":30.2991,"la2":30.254,"lo1":-89.0895,"lo2":-89.0444,"dy":0.0017,"dx":0.0017,"nx":28,"ny":28,"refTime":"2024-07-20T21:00:00:Z","depth":"4","parameterNumber":2,"parameterNumberName":"U-component_of_CURRENTS"},"data":[0,0,0,0,0,0,0,0,0,0,0,0,0,0,0,0,0,0,0,0,0,0,0,0,0,0,0,0,0,0,0,0,0,0,0,0,0,0,0,0,0,0,0,0,0,0,0,0,0,0,0,0,0,0,0,0,0,0,-0.1782,-0.1783,0,-0.1854,-0.1854,-0.1855,-0.1898,-0.1898,-0.1898,-0.1899,-0.1976,-0.1978,-0.198,0,0,0,0,0,0,0,0,0,0,0,0,0,-0.1683,-0.1684,-0.1782,-0.1783,-0.1784,-0.1853,-0.1854,-0.1855,-0.1898,-0.1898,-0.1899,-0.1899,-0.1976,-0.1978,-0.198,0,0,0,0,0,0,0,0,0,0,0,0,0,-0.1736,-0.1685,-0.1782,-0.1815,-0.1818,-0.1853,-0.1854,-0.1855,-0.1898,-0.1898,-0.1899,-0.1899,-0.1975,-0.1978,-0.198,-0.1986,0,0,-0.1988,-0.1989,0,0,0,0,0,0,0,0,-0.1733,-0.1739,-0.1809,-0.1812,-0.1817,-0.1869,-0.1848,-0.19,-0.1898,-0.1866,-0.1899,-0.1899,-0.1941,-0.1947,-0.1957,-0.199,-0.1993,-0.1988,-0.199,-0.1991,-0.1992,0,0,0,0,0,0,0,-0.1729,-0.1736,-0.1809,-0.181,-0.1815,-0.1826,-0.1834,-0.1858,-0.1899,-0.1869,-0.1872,-0.1883,-0.1944,-0.1954,-0.1959,-0.1994,-0.1988,-0.1991,-0.1992,-0.1993,-0.2087,-0.2088,0,0,0,0,0,0,-0.1723,-0.1733,-0.1806,-0.1811,-0.1777,-0.1828,-0.1837,-0.185,-0.1899,-0.1907,-0.1882,-0.1884,-0.195,-0.1956,-0.1962,-0.2037,-0.1991,-0.1994,-0.1995,-0.2086,-0.2087,-0.2088,0,0,0,0,0,0,-0.1721,-0.1729,-0.1803,-0.1774,-0.1785,-0.1829,-0.1844,-0.1851,-0.1892,-0.1909,-0.1917,-0.1918,-0.195,-0.1958,-0.201,-0.2038,-0.1995,-0.1997,-0.2085,-0.2086,-0.2088,-0.2146,0,0,0,0,0,0,-0.1717,-0.1728,-0.175,-0.1774,-0.1787,-0.1846,-0.1844,-0.1852,-0.1896,-0.1901,-0.1942,-0.1948,-0.1951,-0.2006,-0.2013,-0.2041,-0.1999,-0.2084,-0.2086,-0.2087,-0.2143,-0.2149,-0.2155,0,0,0,0,0,-0.1714,-0.1738,-0.1751,-0.1761,-0.1811,-0.1847,-0.1855,-0.1886,-0.1898,-0.1923,-0.1951,-0.1949,-0.2021,-0.201,-0.2017,-0.2047,-0.2083,-0.2085,-0.2087,-0.2141,-0.2148,-0.2155,0,0,0,0,0,0,-0.1708,-0.1745,-0.176,-0.1796,-0.183,-0.1856,-0.1886,-0.1904,-0.1946,-0.1959,-0.1969,-0.1978,-0.2029,-0.203,-0.2017,-0.2076,-0.2048,-0.2052,-0.2086,-0.2093,-0.2099,-0.2085,-0.2001,0,0,0,0,0,-0.1716,-0.1746,-0.1779,-0.1812,-0.1832,-0.1864,-0.1889,-0.1911,-0.1943,-0.1964,-0.1992,-0.2017,-0.2038,-0.2061,-0.2079,-0.2121,-0.2095,-0.2141,-0.2147,-0.2152,-0.2144,-0.2138,-0.2142,-0.2095,-0.2095,-0.2095,0,0,-0.1724,-0.1749,-0.1767,-0.1814,-0.1843,-0.1879,-0.1881,-0.1929,-0.1962,-0.1965,-0.203,-0.2044,-0.2053,-0.2096,-0.2118,-0.2106,-0.215,-0.2154,-0.2159,-0.2148,-0.2141,-0.2145,-0.2149,-0.2096,-0.2096,-0.2096,0,0,-0.1745,-0.1777,-0.1809,-0.1841,-0.1892,-0.1911,-0.1931,-0.1977,-0.2006,-0.2062,-0.2065,-0.2097,-0.2145,-0.215,-0.2156,-0.2205,-0.218,-0.2217,-0.2243,-0.2238,-0.2242,-0.2245,-0.2211,-0.2211,-0.2223,-0.2223,-0.2223,0,-0.1756,-0.1795,-0.1825,-0.1863,-0.1892,-0.1928,-0.1966,-0.2,-0.2059,-0.2079,-0.2093,-0.2148,-0.2164,-0.2192,-0.221,-0.2219,-0.2202,-0.2219,-0.2245,-0.2248,-0.225,-0.2215,-0.2213,-0.2226,-0.2226,-0.2225,-0.2225,0,-0.1789,-0.1836,-0.1859,-0.1915,-0.1951,-0.1992,-0.2035,-0.2079,-0.2116,-0.2141,-0.2193,-0.2212,-0.2237,-0.2252,-0.2251,-0.2274,-0.2253,-0.2252,-0.2227,-0.2258,-0.2219,-0.2216,-0.223,-0.2229,-0.2228,-0.2228,0,0,-0.177,-0.1864,-0.1875,-0.1909,-0.1982,-0.2008,-0.2069,-0.2119,-0.2152,-0.2209,-0.2243,-0.2284,-0.229,-0.2296,-0.23,-0.2302,-0.2305,-0.229,-0.2289,-0.2255,-0.2277,-0.2128,-0.211,-0.2317,-0.2317,-0.2317,-0.2242,0,-0.1788,-0.1861,-0.1905,-0.1974,-0.201,-0.2061,-0.211,-0.2161,-0.2204,-0.2249,-0.227,-0.2308,-0.2309,-0.2325,-0.233,-0.2314,-0.2302,-0.2324,-0.2253,-0.225,-0.2112,-0.2104,-0.2318,-0.224,-0.2239,-0.2239,-0.2238,0,-0.1795,-0.1844,-0.1917,-0.1996,-0.2017,-0.2066,-0.2132,-0.2179,-0.2242,-0.2277,-0.2313,-0.2332,-0.235,-0.2347,-0.2325,-0.2342,-0.231,-0.2292,-0.2288,-0.2122,-0.2095,-0.2204,-0.2233,-0.2234,-0.2234,-0.2234,-0.2235,0,-0.1743,-0.1844,-0.19,-0.1931,-0.2031,-0.2071,-0.2119,-0.2189,-0.2223,-0.229,-0.2317,-0.2346,-0.2353,-0.2339,-0.2302,-0.2322,-0.2257,-0.2276,-0.2103,-0.2092,-0.2227,-0.2224,-0.2244,-0.2244,-0.2244,-0.2244,-0.2245,0,-0.1721,-0.1768,-0.1888,-0.1917,-0.1974,-0.205,-0.2107,-0.2159,-0.223,-0.2241,-0.2322,-0.2316,-0.2354,-0.2325,-0.2298,-0.2171,-0.2247,-0.2086,-0.2058,-0.2252,-0.2253,-0.2224,-0.2222,-0.2241,-0.2242,-0.2243,-0.2243,0,-0.1648,-0.1736,-0.1802,-0.1919,-0.1954,-0.199,-0.2091,-0.2117,-0.2204,-0.2218,-0.2238,-0.2292,-0.2237,-0.2241,-0.2195,-0.213,-0.2052,-0.1988,-0.2167,-0.2155,-0.1894,-0.1897,-0.1788,-0.1782,-0.1777,-0.1773,-0.1769,0,-0.1611,-0.1646,-0.1779,-0.1813,-0.1871,-0.1942,-0.1979,-0.2085,-0.2096,-0.2164,-0.2139,-0.2142,-0.2145,-0.1954,-0.1989,-0.1904,-0.1886,-0.1844,-0.189,-0.186,-0.1846,-0.1857,-0.1866,-0.1761,-0.176,-0.1758,-0.1757,0,-0.1532,-0.16,-0.1657,-0.1717,-0.1774,-0.1814,-0.1867,-0.1863,-0.1944,-0.206,-0.1974,-0.1938,-0.1864,-0.1824,-0.1761,-0.1713,-0.1879,-0.1791,-0.1802,-0.1845,-0.1827,-0.1819,-0.1835,-0.1739,-0.1742,-0.1743,-0.1744,0,-0.1469,-0.1486,-0.1559,-0.1591,-0.1652,-0.1627,-0.169,-0.1681,-0.1707,-0.1792,-0.175,-0.1759,-0.1816,-0.1719,-0.1665,-0.16,-0.1589,-0.156,-0.1583,-0.1603,-0.158,-0.1532,-0.1307,0,0,0,0,0,-0.1389,-0.1384,-0.1414,-0.1427,-0.1474,-0.1488,-0.1575,-0.1638,-0.1728,-0.1615,-0.1676,-0.1598,-0.152,-0.1543,-0.1433,-0.158,-0.1594,-0.1449,-0.1575,-0.1641,-0.1662,-0.1653,0,0,0,0,0,0,-0.1334,-0.1365,-0.1362,-0.1262,-0.123,-0.1242,-0.1286,-0.1361,-0.1311,-0.1425,-0.1387,-0.1492,-0.1437,-0.1527,-0.1388,-0.1393,-0.1441,-0.148,-0.1476,-0.163,-0.1648,-0.1665,-0.1663,0,0,0,0,0]},{"header":{"parameterUnit":"m.s-1","parameterCategory":2,"la1":30.2991,"la2":30.254,"lo1":-89.0895,"lo2":-89.0444,"dy":0.0017,"dx":0.0017,"nx":28,"ny":28,"refTime":"2024-07-20T21:00:00:Z","depth":"4","parameterNumber":3,"parameterNumberName":"V-component_of_CURRENTS"},"data":[0,0,0,0,0,0,0,0,0,0,0,0,0,0,0,0,0,0,0,0,0,0,0,0,0,0,0,0,0,0,0,0,0,0,0,0,0,0,0,0,0,0,0,0,0,0,0,0,0,0,0,0,0,0,0,0,0,0,-0.0207,-0.0207,0,-0.0163,-0.0163,-0.0162,-0.0131,-0.0131,-0.013,-0.013,-0.0048,-0.0046,-0.0044,0,0,0,0,0,0,0,0,0,0,0,0,0,-0.0233,-0.0233,-0.0207,-0.0207,-0.0206,-0.0163,-0.0163,-0.0162,-0.0131,-0.0131,-0.013,-0.013,-0.0049,-0.0047,-0.0044,0,0,0,0,0,0,0,0,0,0,0,0,0,-0.0208,-0.0233,-0.0207,-0.0186,-0.0184,-0.0163,-0.0163,-0.0162,-0.0131,-0.0131,-0.013,-0.013,-0.005,-0.0047,-0.0044,-0.0032,0,0,-0.0035,-0.0033,0,0,0,0,0,0,0,0,-0.021,-0.0207,-0.0189,-0.0187,-0.0185,-0.0153,-0.0142,-0.0116,-0.0131,-0.015,-0.013,-0.013,-0.008,-0.0075,-0.0067,-0.0028,-0.0024,-0.0034,-0.0033,-0.0031,-0.0031,0,0,0,0,0,0,0,-0.0212,-0.0209,-0.0189,-0.0189,-0.0186,-0.0168,-0.0164,-0.0137,-0.0116,-0.0149,-0.0146,-0.0142,-0.0078,-0.007,-0.0065,-0.0023,-0.0035,-0.0032,-0.003,-0.0029,0.0038,0.0038,0,0,0,0,0,0,-0.022,-0.0211,-0.0191,-0.0188,-0.0197,-0.0168,-0.0164,-0.0163,-0.0118,-0.0111,-0.0143,-0.0141,-0.0075,-0.0068,-0.0062,-0.0038,-0.0031,-0.0029,-0.0027,0.0038,0.0038,0.0038,0,0,0,0,0,0,-0.0221,-0.0219,-0.0192,-0.0198,-0.0194,-0.0168,-0.0167,-0.0162,-0.0156,-0.0114,-0.0106,-0.0142,-0.0075,-0.0066,-0.0042,-0.0035,-0.0027,-0.0025,0.0038,0.0038,0.0038,0.0005,0,0,0,0,0,0,-0.0222,-0.0219,-0.0225,-0.0199,-0.0194,-0.0187,-0.0167,-0.0161,-0.0154,-0.0152,-0.011,-0.0102,-0.0074,-0.0047,-0.0039,-0.0031,-0.0022,0.0038,0.0038,0.0038,0.0006,0.0004,0.0002,0,0,0,0,0,-0.0223,-0.0232,-0.0226,-0.0224,-0.0202,-0.0187,-0.0183,-0.0162,-0.0155,-0.0155,-0.0128,-0.0104,-0.0041,-0.0045,-0.0036,-0.0026,0.0038,0.0038,0.0038,0.0007,0.0004,0.0002,0,0,0,0,0,0,-0.0246,-0.0228,-0.0222,-0.0225,-0.021,-0.0182,-0.0183,-0.0168,-0.0148,-0.0146,-0.0106,-0.0096,-0.0073,-0.0047,-0.0052,-0.0007,0.0003,0.0005,-0.0023,-0.0026,-0.0028,-0.0029,-0.002,0,0,0,0,0,-0.0255,-0.0258,-0.0236,-0.024,-0.0235,-0.0211,-0.0204,-0.019,-0.0167,-0.0159,-0.0128,-0.0096,-0.0065,-0.0046,-0.002,0.0005,0.0036,0.0018,0.0016,0.0014,0.0018,0.0072,0.0076,0.0038,0.0038,0.0038,0,0,-0.0267,-0.0257,-0.026,-0.0246,-0.0234,-0.0229,-0.0206,-0.02,-0.0191,-0.0152,-0.0134,-0.0106,-0.0063,-0.0037,-0.0023,-0.0013,0.0037,0.0014,0.0012,0.0018,0.0073,0.0077,0.008,0.0038,0.0038,0.0038,0,0,-0.029,-0.0284,-0.0292,-0.0283,-0.0268,-0.0251,-0.0252,-0.0226,-0.0209,-0.0192,-0.0158,-0.0125,-0.0088,-0.0045,-0.0021,-0.0018,0.0019,-0.0014,-0.0017,0.0035,0.0039,0.0043,0.0071,0.0077,-0.0008,-0.0008,-0.0008,0,-0.0306,-0.031,-0.0293,-0.0295,-0.0288,-0.0263,-0.0265,-0.0245,-0.0215,-0.0193,-0.0193,-0.0119,-0.0087,-0.0032,-0.0033,-0.002,0.0004,-0.0012,0.0033,0.0037,0.0042,0.007,0.0078,-0.001,-0.001,-0.001,-0.0009,0,-0.0331,-0.0334,-0.0338,-0.0332,-0.0322,-0.0323,-0.0292,-0.0276,-0.0256,-0.0228,-0.0182,-0.0137,-0.0088,-0.0073,-0.0053,-0.0002,0.0002,0.0018,0.0039,0.0044,0.0073,0.0081,-0.0012,-0.0012,-0.0011,-0.0011,0,0,-0.0367,-0.0357,-0.0361,-0.0359,-0.0341,-0.0334,-0.0315,-0.028,-0.026,-0.0226,-0.0192,-0.0135,-0.0107,-0.0077,-0.0039,0.0007,0.005,0.002,0.0024,0.0046,0.0148,0.0099,0.0104,0.0074,0.0076,0.0077,0.015,0,-0.0391,-0.0408,-0.0389,-0.0396,-0.0399,-0.0362,-0.0344,-0.0309,-0.0275,-0.0239,-0.0173,-0.0139,-0.0108,-0.009,-0.0035,0.0025,0.0074,0.0028,0.0141,0.0144,0.01,0.0113,0.0082,0.0156,0.0158,0.016,0.0161,0,-0.0422,-0.0425,-0.0445,-0.042,-0.0416,-0.0417,-0.0376,-0.0355,-0.0291,-0.0262,-0.0204,-0.0162,-0.0089,-0.0073,0.0054,0.002,0.0081,0.013,0.0135,0.011,0.0112,0.0156,0.0177,0.0176,0.0174,0.0173,0.0172,0,-0.0462,-0.0459,-0.0476,-0.0473,-0.0448,-0.0441,-0.0423,-0.037,-0.0351,-0.0283,-0.0272,-0.0168,-0.0137,-0.0032,0.0054,0.006,0.0178,0.0205,0.0226,0.0223,0.026,0.0255,0.0303,0.0303,0.0303,0.0303,0.0302,0,-0.0493,-0.0504,-0.0501,-0.0512,-0.0526,-0.0485,-0.0484,-0.0445,-0.0398,-0.039,-0.0297,-0.0273,-0.0127,-0.005,0.005,0.0147,0.0181,0.0227,0.0243,0.0241,0.0233,0.0265,0.026,0.0305,0.0305,0.0304,0.0304,0,-0.0537,-0.0536,-0.0558,-0.0549,-0.0553,-0.0566,-0.0551,-0.0545,-0.0489,-0.0479,-0.0466,-0.0352,-0.0249,-0.0115,0.0045,0.0119,0.0231,0.0259,0.0221,0.0233,0.0247,0.0239,0.031,0.0309,0.0308,0.0308,0.0307,0,-0.0559,-0.0579,-0.061,-0.064,-0.0645,-0.0657,-0.067,-0.0611,-0.0603,-0.0536,-0.0537,-0.0435,-0.0356,-0.0164,-0.0014,0.0176,0.0202,0.0259,0.0285,0.0241,0.0251,0.0244,0.0237,0.0306,0.0305,0.0305,0.0305,0,-0.06,-0.0625,-0.0649,-0.072,-0.0753,-0.0772,-0.0778,-0.0776,-0.0713,-0.0673,-0.0597,-0.048,-0.0367,-0.0188,-0.0056,0.0085,0.0226,0.0252,0.0255,0.028,0.0237,0.0245,0.024,0.0302,0.0302,0.0303,0.0303,0,-0.0639,-0.0681,-0.0734,-0.0787,-0.0838,-0.0866,-0.0855,-0.0829,-0.08,-0.0707,-0.0693,-0.0539,-0.0437,-0.0237,-0.0114,0.0014,0.0067,0.012,0.0132,0.0137,0.0063,-0.0018,-0.0015,0,0,0,0,0,-0.0669,-0.0728,-0.0793,-0.0849,-0.0898,-0.0918,-0.0919,-0.0891,-0.0839,-0.08,-0.0734,-0.0625,-0.0414,-0.0307,-0.0187,-0.0128,0.0078,0.0016,0.0143,0.0286,0.0289,0.0227,0,0,0,0,0,0,-0.0696,-0.0772,-0.0806,-0.0887,-0.093,-0.0972,-0.0969,-0.0932,-0.0883,-0.0817,-0.0699,-0.0613,-0.0402,-0.0496,-0.0195,-0.0152,-0.0058,0.0127,0.013,0.0284,0.0287,0.029,0.0227,0,0,0,0,0]}]]